Showing default

DISCO-2, 68431

Orbit data source: Space-Track

DISCO-2, 68431 is a payload satellite owned by Aarhus U. (DK) in SSO that was launched on Mon, 30 Mar 2026 UTC via an FALCON 9 launch vehicle from the Air Force Western Test Range (AFWTR). Payload-class satellites include a variety of spacecraft equipped with specific instruments for various scientific and technological missions. These include communications satellites like Starlink; space stations such as the ISS; scientific satellites like the Hubble; Earth observation satellites from companies like Planet Labs, Umbra, and HawkEye 360; GPS; miniature CubeSats for education and research; and military/defense satellites.

Loading next visibility...
Identifier
68431, 2026-067R
Orbit
SSO
Country
Flag of DKDK / DEN
Related business
Manufacturer
Aarhus U.
Mission
Operational Amateur Imaging
Bus & Motor
CUBESAT 3U, Unknown motor
Mass
~5 kg wet, ~5 kg dry
Launch date (UTC)
2026-03-30 (5 months ago)
Launch vehicle
FALCON 9
Launch site
Air Force Western Test Range (AFWTR)
Object type
Payload
Rocket body
Debris
Shape & HBR
Box, 0.1 m
Radar Cross Section
0.035 m², Medium (>0.1 m² and < 1m²)

Expand to show TLE details & history
Last TLE update: 1 day ago

TLE from 1 day ago
0 DISCO-2
1 68431U 26067R   26235.94362687  .00007060  00000-0  33112-3 0  9992
2 68431  97.4652 193.7486 0004144 102.7841 257.3858 15.19971810 22230
Epoch: 2026-08-23T22:38Z
TLE epoch observation values (Epoch: 2026-08-23T22:38:49.361Z)
Latitude
0.00005°
Longitude
-118.1895°
Altitude
509.639 km
Speed
7.609 km/s
True Right ascension
12h 54m 59s
True Declination
0° 00' 00"
Sunlit
Object was in daylight at epoch
Visualization orbit readout
Latitude
Unknown
Longitude
Unknown
Altitude
Unknown
Speed
Unknown
Apparent Right ascension
Unknown
Apparent Declination
Unknown
Sunlit
N/A
Visualization observer readout
Local Sidereal Time
13:52:57
Azimuth
Unknown
Elevation
Unknown
Doppler factor
Unknown
Orbital elements
Apogee altitude
505.746 km
Perigee altitude
500.043 km
Semi-major axis
6,881.031 km
Eccentricity
0.00041
Inclination
97.4652°
RAAN
193.7486°
Arg. of periapsis
102.7841°
True anomaly
257.33946°
Mean anomaly
257.3858°
Eccentric anomaly
257.36263°
Mean motion
3.80244 °/min
Orbital period
94.68 mins
BSTAR
0.00033112
Loading maneuver chart data...
Computing Atmospheric mass density...
Loading historical data...
Loading historical data...
Loading historical data...
Loading historical data...
Loading historical data...
Loading historical data...
Loading historical data...

Documentation

Showing up to 5 results
|